This is the latest recevied weather packets stored in our database for station/object VE9LJW. If no packets are shown the sender has not sent any weather packets the latest 10 day(s).
| Time | Temp. | Humidity | Pressure | Rain* | Wind** | Luminosity | Snow |
|---|---|---|---|---|---|---|---|
| 1778069661 | 13.33° C | 99% | 1009.5 hPa | 0 mm | - | 55 W/m² | - |
| 1778069358 | 13.33° C | 99% | 1009.6 hPa | 0 mm | - | 64 W/m² | - |
| 1778069055 | 13.33° C | 99% | 1009.5 hPa | 0.51 mm | - | 38 W/m² | - |
| 1778068752 | 12.78° C | 99% | 1009.7 hPa | 0.51 mm | - | 45 W/m² | - |
| 1778068450 | 12.78° C | 99% | 1009.4 hPa | 0 mm | - | 31 W/m² | - |
| 1778068148 | 13.33° C | 99% | 1009.1 hPa | 0 mm | - | 27 W/m² | - |
| 1778067846 | 12.78° C | 99% | 1009.1 hPa | 0 mm | - | 28 W/m² | - |
| 1778067544 | 12.78° C | 99% | 1009.3 hPa | 0 mm | - | 49 W/m² | - |
| 1778067241 | 12.78° C | 99% | 1009.1 hPa | 0 mm | - | 40 W/m² | - |
| 1778066938 | 12.78° C | 99% | 1008.7 hPa | 0 mm | - | 34 W/m² | - |
| 1778066635 | 12.78° C | 99% | 1009 hPa | 0 mm | - | 27 W/m² | - |
| 1778066332 | 12.78° C | 99% | 1009 hPa | 0 mm | - | 38 W/m² | - |
| 1778066031 | 12.78° C | 99% | 1009.1 hPa | 1.27 mm | - | 51 W/m² | - |
| 1778065728 | 12.78° C | 99% | 1008.8 hPa | 0.51 mm | - | 23 W/m² | - |
| 1778065425 | 12.78° C | 99% | 1008.9 hPa | 0.51 mm | - | 15 W/m² | - |
| 1778065121 | 12.78° C | 98% | 1009.6 hPa | 0.51 mm | - | 24 W/m² | - |
| 1778064818 | 12.78° C | 98% | 1009.2 hPa | 0 mm | - | 22 W/m² | - |
| 1778064516 | 12.78° C | 99% | 1009.1 hPa | 0 mm | - | 43 W/m² | - |
| 1778064213 | 12.78° C | 99% | 1008.8 hPa | 0 mm | - | 48 W/m² | - |
| 1778063911 | 12.78° C | 99% | 1009.2 hPa | 0 mm | - | 56 W/m² | - |
| 1778063608 | 12.78° C | 99% | 1009.2 hPa | 0 mm | - | 54 W/m² | - |
| 1778063305 | 12.22° C | 99% | 1009.1 hPa | 0 mm | - | 49 W/m² | - |
| 1778063003 | 12.22° C | 99% | 1008.8 hPa | 0 mm | - | 44 W/m² | - |
| 1778062700 | 12.22° C | 99% | 1009 hPa | 0 mm | - | 31 W/m² | - |
| 1778062396 | 12.22° C | 99% | 1008.9 hPa | 0 mm | - | 24 W/m² | - |
* Rain latest hour (hover to see other rain measurements)
** Current wind speed in m/s (hover to see current wind gust speed)